Location: Cerro Alto Campground
(35.4250°N, 120.7383°W)
Time: 01:54:26
(UTC-07:00)

Daily predictions for brighter satellites

Satellite Brightness Start Highest point End
(mag) Time Altitude Azimuth Time Altitude Azimuth Time Altitude Azimuth
CZ-4C R/B 4.4 00:14:52 19° NW 00:14:52 19° NW 00:18:31 10° N
USA 234 4.4 00:20:17 37° NNW 00:20:17 37° NNW 00:24:09 10° NW
ATLAS 5 CENTAUR R/B 4.2 00:14:47 10° NNW 00:17:13 26° NNW 00:17:13 26° NNW
Cosmos 1833 Rocket 4.5 02:23:18 28° NNE 02:23:18 28° NNE 02:25:52 10° NNE
Lacrosse 5 rocket 4.4 02:47:04 14° NNE 02:47:04 14° NNE 02:47:41 10° NNE
ARIANE 5 R/B 4.1 02:50:42 10° NNE 02:54:03 31° ENE 02:54:03 31° ENE
CZ-2D R/B 3.1 03:06:26 10° NNE 03:10:00 43° NNE 03:10:00 43° NNE
SL-16 R/B 2.9 03:21:59 56° NNW 03:21:59 56° NNW 03:26:51 10° NNW
Cosmos 1980 Rocket 2.7 03:16:19 10° NNW 03:21:31 57° NE 03:21:31 57° NE
IRS-1D 4.4 03:16:53 10° NNE 03:20:30 46° N 03:20:30 46° N
Cosmos 1697 Rocket 4.1 03:18:34 10° NNW 03:21:08 28° NNW 03:21:08 28° NNW
Cosmos 2082 Rocket 3.5 03:30:21 29° NNW 03:30:21 29° NNW 03:33:57 10° N
ADEOS II 3.7 03:27:28 10° NE 03:31:56 28° E 03:33:18 25° ESE
ADEOS 4.2 03:29:05 10° NNE 03:34:05 50° E 03:34:05 50° E
SL-16 R/B 4.3 03:30:13 10° N 03:34:46 24° ENE 03:39:18 10° ESE
Cosmos 2228 4.4 03:34:42 10° N 03:38:16 36° ENE 03:38:16 36° ENE
Resurs 1-4 Rocket 3.2 03:42:12 10° N 03:45:43 34° NW 03:45:43 34° NW
Meteor 1-22 Rocket 4.4 03:43:30 10° N 03:49:25 72° E 03:50:47 52° SE
Cosmos 2322 Rocket 4.0 03:45:24 10° N 03:50:20 30° ENE 03:55:14 10° ESE
Cosmos 1892 Rocket 4.3 03:52:40 48° N 03:52:40 48° N 03:55:52 10° N
ATLAS 3B R/B 2.9 03:50:47 52° S 03:52:32 70° ESE 03:59:30 10° NE
Cosmos 1763 Rocket 3.4 03:54:44 86° NNE 03:54:44 86° NNE 03:59:56 10° NNE
Cosmos 2180 Rocket 4.4 03:56:16 67° SSW 03:57:11 80° W 04:03:36 10° N
NOSS 3-2 (A) 4.0 03:57:37 39° SSE 03:59:08 48° ESE 04:05:07 10° NE
Cosmos 2279 Rocket 4.1 04:06:08 53° W 04:06:25 53° W 04:12:33 10° N
Cosmos 1805 3.7 04:06:17 10° N 04:09:42 60° NE 04:09:42 60° NE
Cosmos 1953 4.5 04:08:01 10° NNE 04:11:27 26° ENE 04:14:51 10° SE
Cosmos 1898 Rocket 3.4 04:07:59 10° NNW 04:12:51 62° W 04:12:51 62° W
SEDSat Delta rocket 3.9 04:14:00 53° SW 04:15:09 62° S 04:21:50 10° ESE
Cosmos 44 4.2 04:10:22 10° NNW 04:15:33 55° ENE 04:20:50 10° SE
USA 215 3.3 04:11:12 10° NE 04:17:45 76° SE 04:20:18 40° SSW
Cosmos 1937 Rocket 3.3 04:18:06 10° NNW 04:23:16 73° WSW 04:25:29 34° S
Meteosat 1 Rocket2 4.3 04:25:11 40° SSW 04:26:43 47° S 04:34:59 10° ESE
Cosmos 858 Rocket 4.5 04:22:53 10° NNW 04:27:58 56° WSW 04:28:52 49° SW
ERBS 3.9 04:28:35 27° SE 04:28:53 27° ESE 04:31:48 10° ENE
ARIANE 5 R/B 3.9 04:30:19 10° NNW 04:34:23 23° WNW 04:34:24 23° WNW
Okean O Rocket 4.0 04:32:32 10° NE 04:35:46 20° E 04:38:57 10° SE
Cosmos 1758 3.3 04:33:49 10° N 04:37:48 79° E 04:40:21 21° SSE
Cosmos 990 Rocket 4.0 04:33:12 10° NNW 04:38:12 52° WSW 04:40:21 31° SSW
Timation 2 Rocket 4.3 04:37:40 35° WSW 04:39:27 44° WNW 04:45:08 10° N
Cosmos 44 Rocket 3.7 04:39:47 10° NNW 04:44:56 68° ENE 04:50:06 10° SE
Cosmos 1733 3.2 04:42:20 10° N 04:46:14 81° E 04:49:47 12° S
Cosmos 836 Rocket 4.5 04:44:04 24° SSW 04:47:16 84° ESE 04:52:29 10° NNE
CZ-2D R/B 4.2 04:50:20 10° NW 04:51:01 10° WNW 04:51:19 10° WNW
Delta 2 Rocket 4.4 04:48:35 31° SW 04:51:08 55° SSE 04:56:32 10° E
Cosmos 2150 Rocket 4.1 04:47:18 10° NNW 04:52:38 54° WSW 04:57:55 10° S
Cosmos 2266 Rocket 4.0 04:48:25 10° NNW 04:54:23 58° W 05:00:24 10° S
USA 238 DEB 4.3 04:52:34 25° WSW 04:55:58 40° NW 05:02:28 10° NNE
USA 238 4.3 04:52:39 25° WSW 04:56:04 41° NW 05:02:34 10° NNE
DNEPR-1 R/B 3.9 04:55:33 34° WSW 04:56:56 47° NW 05:01:15 10° NNE
PSLV R/B 3.4 04:53:59 10° N 04:58:12 83° WNW 05:01:12 19° SSW
Cosmos 2298 Rocket 4.4 04:54:53 10° NNW 04:59:49 40° W 05:04:42 10° S
Cosmos 2360 Rocket 3.1 04:57:52 10° NNW 05:03:22 53° ENE 05:08:50 10° SE
Cosmos 1980 Rocket 4.0 05:02:01 10° WNW 05:03:11 13° WNW 05:03:11 13° WNW
Cosmos 1812 Rocket 3.5 05:04:05 10° N 05:08:33 76° W 05:12:58 10° S
CZ-4B R/B 2.8 05:04:24 10° NNE 05:08:35 88° W 05:12:20 11° SSW
Cosmos 1602 Rocket 4.1 05:08:09 25° SW 05:09:59 36° W 05:13:59 10° NNW
USA 161 3.8 05:07:58 10° SE 05:10:39 28° ENE 05:13:16 10° NNE
ADEOS II 3.0 05:07:01 10° N 05:11:34 31° WNW 05:14:15 20° WSW
Cosmos 1470 2.8 05:08:44 10° NNW 05:12:40 61° W 05:16:33 10° S
Cosmos 1758 Rocket 3.9 05:12:02 10° S 05:16:17 65° E 05:20:35 10° NNE
SL-16 R/B 2.5 05:13:42 10° NW 05:18:59 42° WSW 05:24:16 10° S
BREEZE-M DEB (TANK) 3.2 05:18:43 18° WNW 05:19:35 23° NNW 05:21:36 10° NNE
Cosmos 1238 Rocket 4.1 05:13:27 10° S 05:19:50 82° W 05:26:36 10° N
Cosmos 540 Rocket 4.3 05:22:34 17° WSW 05:25:46 31° WNW 05:30:20 10° N
Cosmos 1378 4.2 05:24:02 18° WSW 05:25:51 26° WNW 05:29:05 10° NNW
Cosmos 1707 3.3 05:23:34 14° SW 05:26:28 38° W 05:30:07 10° N
SJ 16-02 1.5 05:27:48 10° NNW 05:32:06 52° WSW 05:36:22 10° S
Centaur D AC-28 4.1 05:07:29 15° WSW 05:32:44 55° S 05:38:23 10° ESE
NOSS 3-2 (C) 3.8 05:28:09 14° WSW 05:33:02 47° NW 05:39:16 10° NNE
Cosmos 2322 Rocket 2.8 05:29:22 10° NW 05:34:18 32° WSW 05:39:11 10° SSW
Meteor 1-16 Rocket 4.2 05:30:50 10° N 05:36:29 87° W 05:41:54 10° S
ATLAS CENTAUR R/B 2.3 05:32:20 10° NNW 05:36:47 60° ENE 05:41:27 10° SE
ATLAS 3B R/B 4.0 05:38:06 10° W 05:43:46 25° NW 05:49:18 10° N
Meteor 1-31 Rocket 2.8 05:41:57 10° N 05:45:47 65° WNW 05:49:33 10° SSW
CZ-2C R/B 4.3 05:42:42 10° NE 05:46:50 31° E 05:50:52 10° SSE
Cosmos 1953 3.8 05:44:52 10° NW 05:47:38 18° W 05:50:24 10° SW
Cosmos 1400 Rocket 2.7 05:46:08 10° S 05:50:01 79° W 05:54:00 10° N
PAYLOAD B 4.4 05:45:43 10° N 05:51:14 60° WNW 05:56:43 10° SSW
Cosmos 1674 3.9 05:50:20 10° SSE 05:53:59 47° E 05:57:38 10° NNE
In-Cosmos 22 4.1 05:51:27 10° SSW 05:56:57 73° W 06:02:21 10° N
